Regional Weather Roundup
Issued by NWS

Home | Current Version | Previous Version | Graphics & Text | Print | Product List | Glossary On
Versions: 1 2 3 4 5 6 7 8 9 10 11 12 13 14 15 16 17 18 19 20 21 22 23 24 25 26 27 28 29 30 31 32 33 34 35 36 37 38 39 40 41 42 43 44 45 46 47 48 49 50
000
ASUS43 KMPX 281810
RWRMN
WEATHER ROUNDUP FOR MINNESOTA
NATIONAL WEATHER SERVICE TWIN CITIES/CHANHASSEN MN
1200 PM CST SAT FEB 28 2015


NOTE: "FAIR" INDICATES FEW OR NO CLOUDS BELOW 12,000 FEET WITH NO
SIGNIFICANT WEATHER AND/OR OBSTRUCTIONS TO VISIBILITY. N/A MEANS
CURRENT SKY AND/OR WEATHER CONDITIONS ARE NOT AVAILABLE.

MNZ060>063-068>070-281900-
   Twin Cities Metro

CITY           SKY/WX    TMP DP  RH WIND       PRES   REMARKS
TWIN CITIES    MOSUNNY   18   2  49 S12       30.49F WCI   5
6HR MIN TEMP:  -3; 6HR MAX TEMP:  18;

ST PAUL        SUNNY     20   3  48 S15       30.51F WCI   6
CRYSTAL        SUNNY     20   3  48 S15G25    30.47F WCI   6
BLAINE         MOSUNNY   19   5  53 S12G17    30.47F WCI   7
LAKEVILLE      SUNNY     12   3  67 S12       30.49F WCI  -2
EDEN PRAIRIE   SUNNY     18   3  52 S15       30.47F WCI   4
6HR MIN TEMP:  -2; 6HR MAX TEMP:  18;

SOUTH ST PAUL  SUNNY     19   4  52 S10G18    30.50F WCI   7
LAKE ELMO      FAIR      18   5  57 S15       30.51F WCI   3
$$
MNZ001>005-007-008-013>017-022>024-027-028-281900-
   Northwest Minnesota

CITY           SKY/WX    TMP DP  RH WIND       PRES   REMARKS
BEMIDJI        MOSUNNY   19   3  49 S16       30.23F WCI   5
HALLOCK        MOSUNNY   14   7  73 S21       30.16F WCI  -4
ROSEAU         PTSUNNY   18   7  62 S13       30.18F WCI   4
WARROAD        MOSUNNY   18   7  62 S9        30.19F WCI   6
THIEF RVR FALL MOSUNNY   18   7  62 S16G22    30.19F WCI   3
CROOKSTON      MOSUNNY   19  12  73 S20       30.21F WCI   4
FOSSTON        MOSUNNY   19   7  58 S16       30.21F WCI   5
DETROIT LAKES  SUNNY     21  10  63 S13       30.23F WCI   9
MOORHEAD       MOSUNNY   23  10  58 S18       30.23F WCI   9
PARK RAPIDS    SUNNY     20   5  52 S15       30.25F WCI   6
MAHNOMEN       FAIR      21  11  65 S17       30.21F WCI   6
$$
MNZ006-009>011-018-025>026-281900-
   North Central Minnesota

CITY           SKY/WX    TMP DP  RH WIND       PRES   REMARKS
BAUDETTE       MOSUNNY   18   3  52 S10       30.19F WCI   6
FLAG ISLAND    MOSUNNY    9   1  72 S15       30.18F WCI  -8
INTL FALLS     MOSUNNY   21   0  39 S7        30.23F WCI  12
6HR MIN TEMP:  -1; 6HR MAX TEMP:  21;

WASKISH        MOSUNNY   21   3  45 CALM      30.22F
BIG FORK       MOSUNNY   21   1  42 S13G20    30.27F WCI   9
LONGVILLE      SUNNY     19   1  45 S13G20    30.30F WCI   7
GRAND RAPIDS   MOSUNNY   16   3  57 S14G21    30.30F WCI   1
CRANE LAKE     PTSUNNY   19  -2  38 S8G17     30.31F WCI   9
ORR            MOSUNNY   21  -2  35 SW16G22   30.26F WCI   7
COOK           PTSUNNY   18   1  49 S9G17     30.30F WCI   6
WALKER         FAIR      20   2  45 S8        30.26F WCI  10
$$
MNZ012-019>021-037-281900-
   Northeast Minnesota

CITY           SKY/WX    TMP DP  RH WIND       PRES   REMARKS
DULUTH         MOSUNNY   17   3  54 S17       30.37F WCI   1
6HR MIN TEMP:  -1; 6HR MAX TEMP:  17;

ELY            PTSUNNY   18   0  45 SW12G18   30.32S WCI   5
HIBBING        PTSUNNY   18   0  45 SW13G21   30.32F WCI   5
EVELETH        PTSUNNY   18   1  49 SW17      30.33F WCI   2
DULUTH HARBOR  MOSUNNY   19   7  58 SW13      30.45F WCI   7
TWO HARBORS    MOSUNNY   19   7  58 S14       30.39S WCI   6
SILVER BAY     MOSUNNY   19   3  49 S14       30.37F WCI   6
GRAND MARAIS     N/A     16  11  80 SW24      30.43F WCI  -2
G MARAIS ARPRT SNOW      12   5  73 S8        30.31F VSB 1/2 WCI   1
$$
MNZ029>031-032-039>041-046>048-054>057-064-281900-
   West Central Minnesota

CITY           SKY/WX    TMP DP  RH WIND       PRES   REMARKS
FERGUS FALLS   MOSUNNY   19   9  63 S20G25    30.31F WCI   4
WHEATON        SUNNY     19   9  63 S17G24    30.29F WCI   4
MORRIS         MOSUNNY   19   9  63 S21       30.31F WCI   3
ALEXANDRIA     SUNNY     18   5  57 S21G30    30.31F WCI   1
ELBOW LAKE     FAIR      20  11  69 S21G28    30.28F WCI   4
WADENA         SUNNY     19   7  58 S14G21    30.28F WCI   6
APPLETON       MOSUNNY   23   9  54 S15G23    30.34S WCI  10
BENSON         MOSUNNY   21   9  58 SW18G24   30.34F WCI   6
ORTONVILLE     SUNNY     21   9  58 S16       30.30F WCI   7
MADISON        SUNNY     23  10  58 S17       30.33F WCI   9
WILLMAR        FAIR      19   7  58 S8G17     30.39F WCI   9
$$
MNZ033>034-036-042>043-049>051-058-059-281900-
   Central Minnesota

CITY           SKY/WX    TMP DP  RH WIND       PRES   REMARKS
ST CLOUD       SUNNY     18   3  52 S14       30.41F WCI   4
6HR MIN TEMP:  -3; 6HR MAX TEMP:  18;

SAUK CENTRE    FAIR      20   5  53 S22       30.35F WCI   3
PAYNESVILLE    SUNNY     16   4  60 SE15G21   30.38F WCI   1
AITKIN         MOSUNNY   21   3  45 S12       30.34F WCI   9
PINE RIVER     SUNNY     19   7  58 S13       30.33F WCI   7
BRAINERD       SUNNY     17   5  59 S10       30.35F WCI   5
STAPLES        SUNNY     18   3  53 S17       30.31F WCI   2
LONG PRAIRIE   FAIR      21   9  58 S20       30.34F WCI   6
LITTLE FALLS   SUNNY     19   3  49 S16       30.38F WCI   5
LITCHFIELD     SUNNY     18   7  62 S5        30.41F WCI  11
BUFFALO        SUNNY     18   3  53 S12G18    30.46F WCI   5
MAPLE LAKE     SUNNY     19   6  56 S10       30.44F WCI   7
$$
MNZ037-044-045-052-053-281900-
   East Central Minnesota

CITY           SKY/WX    TMP DP  RH WIND       PRES   REMARKS
PRINCETON      SUNNY     19   3  49 S12G17    30.42F WCI   7
MORA           SUNNY     19   3  49 S10       30.44F WCI   8
CAMBRIDGE      SUNNY     19   5  53 S10G16    30.43F WCI   8
RUSH CITY      SUNNY     18   4  54 S8        30.46F WCI   7
MOOSE LAKE     MOSUNNY   18   1  49 SW13      30.38F WCI   4
HINCKLEY         N/A     18   5  57 S12G17    30.44F WCI   5
CLOQUET        MOSUNNY   16   0  48 S14G20    30.37F WCI   1
MCGREGOR       MOSUNNY   21   5  49 S16       30.37F WCI   7
$$
MNZ071>073-080-081-089-090-097-098-281900-
   Southwest Minnesota

CITY           SKY/WX    TMP DP  RH WIND       PRES   REMARKS
MONTEVIDEO     MOSUNNY   23  10  58 SW16G22   30.36F WCI  10
GRANITE FALLS  MOSUNNY   21  10  62 S22G28    30.39F WCI   5
CANBY          SUNNY     22  10  60 SW17G23   30.33F WCI   7
MARSHALL       MOSUNNY   19   7  58 S23       30.37F WCI   2
REDWOOD FALLS  SUNNY     19   7  59 S21G26    30.40F WCI   3
OLIVIA         SUNNY     19   9  63 S16       30.39F WCI   5
PIPESTONE      SUNNY     18  10  73 SW18      30.31S WCI   2
WINDOM         SUNNY     18   7  62 S14G23    30.38F WCI   4
WORTHINGTON    SUNNY     19   9  63 S22       30.37F WCI   3
JACKSON        SUNNY     18   9  68 S15       30.40F WCI   3
TRACY          MOSUNNY   21   8  59 S14G24    30.36F WCI   8
SLAYTON        SUNNY     17   7  62 S20G26    30.34F WCI   1
$$
MNZ065>067-074>077-082>085-091>093-281900-
   South Central Minnesota

CITY           SKY/WX    TMP DP  RH WIND       PRES   REMARKS
MANKATO        SUNNY     16   5  62 S14       30.47F WCI   1
NEW ULM        SUNNY     14   5  67 S16       30.44F WCI  -2
ST JAMES       SUNNY     16   7  67 S13       30.46S WCI   2
FAIRMONT       SUNNY     14   7  73 S20       30.43F WCI  -3
GLENCOE        SUNNY     18   8  65 S9G16     30.45F WCI   6
FARIBAULT      SUNNY     12   3  67 S13       30.50F WCI  -3
OWATONNA       SUNNY     12   1  62 S12       30.49F WCI  -2
WASECA         SUNNY     14   7  73 S15       30.50F WCI  -1
ALBERT LEA     SUNNY     10   1  67 S14       30.49F WCI  -5
$$
MNZ078>079-086>088-094>096-281900-
   Southeast Minnesota

CITY           SKY/WX    TMP DP  RH WIND       PRES   REMARKS
ROCHESTER      SUNNY      8  -1  66 S17       30.52S WCI -10
6HR MIN TEMP: -15; 6HR MAX TEMP:   8;

RED WING       SUNNY     16   1  53 S9        30.54F WCI   4
STANTON        SUNNY     15   4  61 S14       30.51F WCI   0
DODGE CENTER   MOSUNNY    9   1  72 S16       30.50F WCI  -9
WINONA         SUNNY     18   3  53 SW9       30.61S WCI   6
AUSTIN         SUNNY      9   0  66 S10       30.51F WCI  -6
PRESTON        SUNNY      7  -2  64 S15       30.54F WCI -10
$$
ABBREVIATIONS USED IN REMARKS
   TC - TEMPERATURES IN CELSIUS
  WCI - WIND CHILL INDEX
   HX - HEAT INDEX
  VSB - VISIBILITY
$$


USA.gov is the U.S. government's official web portal to all federal, state and local government web resources and services.